Wind_Speed
5 7 12 11 9 12 12 13 17 15 12 17 22 21 18 18 16 14 18 20 23 27 25 25 25 31 33 29 28 26 23 20 18 19 20 19 18 16 17 18 17 14 28 40
2 10 11 6 6 9 11 14 17 12 13 13 19 23 18 16 18 20 22 24 24 26 24 26 29 28 35 33 31 29 25 21 20 19 21 21 19 15 18 15 12 17 21 33
6 2 5 7 6 6 9 11 13 12 15 18 20 24 23 20 20 19 23 23 24 24 23 26 30 31 34 36 34 33 26 22 19 19 20 18 16 16 17 14 15 10 15 32
6 4 6 6 5 4 3 5 10 12 9 5 1 8 11 12 15 14 20 18 24 24 25 27 31 34 35 37 36 33 27 22 19 21 22 19 19 19 18 18 18 16 16 19
3 3 4 8 7 7 4 4 7 10 11 11 11 8 3 7 7 10 11 19 21 21 20 24 31 32 31 35 36 35 28 23 19 20 22 19 17 17 17 16 18 18 22 22
5 2 3 5 4 6 2 5 11 8 6 6 14 13 3 5 3 5 5 10 11 12 16 20 23 26 28 32 36 34 29 24 19 18 21 19 17 18 15 17 18 19 19 22
3 5 4 5 5 4 5 4 3 2 4 5 3 9 14 13 8 6 10 15 16 12 11 16 22 28 31 32 36 35 31 26 20 18 21 20 17 16 16 15 14 17 18 22
2 1 5 4 10 3 7 6 3 3 3 3 0 6 2 8 9 10 11 13 14 14 11 21 23 24 27 30 34 37 34 27 20 17 17 20 19 19 18 17 18 20 21 20
4 3 2 3 3 7 4 5 1 3 5 5 5 6 9 12 13 14 17 18 19 14 10 17 19 19 21 25 29 34 33 25 18 14 15 16 18 18 18 16 14 14 15 17
2 3 0 2 4 4 1 5 2 3 3 5 6 6 4 12 14 14 16 18 19 13 8 9 13 15 18 22 26 31 29 22 16 14 13 13 12 13 14 10 10 10 10 13
1 3 1 5 5 8 4 2 2 2 4 3 4 1 4 8 9 10 11 16 18 20 10 7 11 14 17 19 24 27 25 22 16 12 11 10 10 11 11 11 11 9 8 12
2 1 5 8 3 7 4 2 4 3 2 4 3 3 2 11 12 11 13 15 16 18 19 14 16 17 18 19 22 22 21 18 15 12 10 10 9 9 9 10 10 11 11 11
3 1 2 7 4 4 3 3 3 3 2 5 3 1 4 10 13 17 16 16 17 17 20 24 27 25 23 21 22 21 19 16 12 9 7 7 7 6 7 7 7 9 10 10
6 4 5 2 4 3 2 4 3 5 3 5 6 6 3 8 6 10 15 14 19 20 20 24 29 26 25 23 21 19 17 14 11 9 7 7 7 5 4 6 7 7 8 10
2 3 7 6 4 4 2 6 8 8 9 5 5 6 9 6 8 5 7 12 18 18 21 24 25 25 23 22 20 19 18 13 12 12 10 10 10 10 9 8 9 9 10 11
3 3 5 3 6 1 4 9 5 6 9 13 15 16 9 14 12 17 9 12 14 16 18 20 22 23 22 19 18 18 18 18 12 10 9 7 7 9 12 12 12 12 12 13
3 1 2 1 3 7 4 5 6 5 6 9 9 7 2 6 13 19 22 18 13 15 16 20 22 22 20 19 16 15 15 13 10 6 0 4 5 6 8 10 12 13 15 16
3 5 1 1 2 3 2 8 3 3 4 9 11 4 9 13 18 21 15 16 15 16 15 17 18 17 16 15 16 14 15 13 8 5 6 4 4 5 6 7 9 9 10 13
12 4 1 1 2 6 3 4 4 3 5 10 8 5 9 16 16 15 15 14 16 20 18 17 15 14 13 14 13 12 11 10 11 10 8 6 5 4 3 3 3 5 7 10
7 2 1 1 2 4 0 2 10 4 6 11 13 10 9 12 5 3 14 15 17 17 14 14 13 12 11 10 10 10 11 10 13 12 11 9 9 7 6 5 4 5 3 3
5 3 8 6 4 6 5 13 6 4 3 13 15 17 13 5 10 21 19 19 18 16 13 12 11 12 12 10 8 9 11 14 14 12 11 11 10 10 9 9 9 8 8 8
2 5 3 5 5 6 12 4 2 6 6 9 14 20 22 21 25 25 20 18 18 16 13 13 13 14 13 11 10 12 14 13 12 14 14 15 15 15 13 12 11 10 10 9
1 2 1 4 1 6 9 8 7 11 9 9 11 13 21 20 21 22 20 19 18 16 14 14 13 14 14 14 13 14 15 13 12 14 18 18 18 20 19 19 19 18 17 18
2 7 2 4 5 10 11 12 11 11 15 13 13 17 20 23 19 20 18 17 17 14 14 13 13 14 16 15 15 17 14 14 14 16 19 21 22 23 23 23 23 23 24 24
4 6 5 0 8 13 19 16 12 15 17 18 16 16 17 16 16 15 16 15 14 13 12 12 14 15 16 15 15 15 14 13 14 17 19 20 21 21 22 22 22 22 22 19
5 4 2 2 6 11 9 10 11 16 16 15 16 17 15 14 16 13 15 14 14 14 14 15 16 17 18 16 16 15 14 13 13 15 17 18 18 18 17 17 17 17 16 14
Wind_Direction
181 207 222 218 218 243 271 275 273 272 279 286 279 280 282 287 278 272 281 282 280 281 276 260 255 241 227 221 218 219 222 220 211 210 209 208 222 207 212 214 225 226 226 212
176 233 236 219 234 243 258 271 277 280 262 265 272 274 276 268 273 268 273 277 277 275 266 260 256 245 226 220 216 218 221 222 214 213 204 205 217 215 209 214 230 223 222 206
206 191 92 174 221 243 254 254 272 274 290 277 279 277 264 255 256 266 264 260 265 260 266 265 250 239 222 217 216 217 218 221 215 205 204 210 209 206 199 194 209 222 219 209
236 231 220 209 235 190 284 239 261 277 285 273 341 288 296 280 269 261 259 255 258 254 260 259 249 231 221 216 214 213 215 218 212 203 206 210 204 198 197 195 198 203 180 194
230 202 182 213 224 171 246 305 277 292 270 277 266 273 319 249 260 247 242 243 247 256 262 257 238 226 217 212 211 208 211 216 213 201 207 206 209 209 211 202 202 203 194 188
250 204 213 208 200 191 260 297 284 253 275 264 250 225 285 246 246 328 331 317 305 299 277 251 231 223 214 207 209 205 208 213 211 201 202 207 213 210 209 200 200 208 211 214
264 235 231 195 230 218 224 269 286 216 215 259 289 214 253 297 323 350 332 323 319 317 270 234 216 207 204 204 207 202 205 210 209 203 198 207 215 218 219 217 226 219 226 228
276 297 172 181 212 165 194 196 232 278 245 312 328 238 185 358 10 17 359 332 321 320 261 241 221 206 203 201 204 196 201 205 206 201 197 201 213 220 222 227 232 238 245 239
184 259 165 188 160 188 150 206 242 280 253 275 231 236 225 7 21 13 4 3 350 332 282 234 217 204 196 195 196 196 197 197 202 197 195 200 207 213 219 229 218 227 225 231
257 252 141 128 121 56 145 122 202 172 262 246 253 251 328 9 2 11 9 5 3 2 358 208 196 184 177 194 189 197 194 190 191 194 192 198 205 210 208 202 201 211 221 221
245 224 128 144 206 182 160 185 213 289 253 280 314 150 39 47 32 33 19 12 13 21 34 98 137 153 172 187 186 189 184 183 178 181 190 189 193 197 205 207 209 211 216 214
14 327 243 239 225 196 184 179 167 233 274 255 308 282 108 43 47 54 43 25 28 45 59 91 126 142 157 170 177 175 178 172 164 166 174 183 194 205 213 217 214 214 217 218
332 328 251 159 110 88 106 91 10 316 233 243 264 128 83 55 52 53 51 42 37 42 61 92 103 112 128 142 153 163 162 161 162 166 170 176 183 194 212 218 226 231 229 230
341 204 254 305 97 129 196 283 193 169 264 348 286 334 11 7 31 54 50 51 54 51 55 74 96 103 113 120 134 147 149 150 151 163 181 209 218 229 228 226 230 236 240 238
284 255 248 261 155 162 214 257 282 249 240 227 264 267 259 238 224 56 68 68 65 53 57 65 80 90 99 106 110 116 124 139 167 175 193 213 220 232 234 232 231 241 248 250
262 206 225 187 133 213 263 270 293 267 252 250 259 278 288 272 152 128 113 81 69 62 63 65 69 72 75 83 91 98 107 116 119 146 165 197 220 225 227 230 231 231 242 251
269 277 223 262 347 317 258 165 323 272 270 277 269 279 269 181 165 158 149 120 97 84 65 64 66 69 71 75 84 93 95 95 107 85 168 187 198 206 213 223 228 234 241 247
293 251 209 236 325 233 92 317 208 264 272 321 298 297 64 95 58 80 91 112 109 95 81 78 71 70 71 74 76 78 81 89 102 140 168 177 196 204 217 222 229 234 239 241
209 254 263 10 264 320 307 58 33 351 313 18 6 34 129 126 97 59 98 94 105 98 86 75 74 73 72 73 73 83 88 94 115 106 103 115 118 126 153 181 192 212 233 244
159 181 151 116 247 252 10 6 327 275 275 0 346 314 190 183 185 103 114 106 96 103 95 92 85 76 72 60 63 76 89 76 74 68 65 67 72 80 87 94 90 81 64 56
135 145 208 217 242 273 355 320 315 254 335 354 352 328 213 186 98 119 115 104 103 100 85 81 84 83 84 76 71 75 76 69 64 68 68 68 72 75 75 73 71 70 69 63
161 153 186 200 218 249 356 352 10 326 18 32 43 63 83 99 108 116 107 95 90 86 77 70 70 73 76 78 73 75 72 73 69 65 71 69 71 79 87 85 89 90 86 77
72 8 273 238 337 78 51 78 23 37 79 64 83 90 111 101 101 104 98 93 86 80 71 68 67 70 71 71 71 73 72 71 74 73 75 75 75 76 78 80 82 84 87 85
64 31 300 358 118 92 81 67 60 71 81 92 95 111 118 111 104 102 96 86 82 76 73 72 71 72 72 70 73 76 79 79 84 85 83 84 81 80 79 79 77 77 75 75
7 326 342 108 117 87 53 65 72 76 89 94 97 97 100 105 97 93 90 84 81 82 80 79 78 76 76 77 79 81 84 84 85 85 82 77 75 75 75 75 75 73 73 72
352 355 319 17 335 86 67 73 90 87 81 87 93 93 94 97 98 97 95 96 96 93 89 86 83 82 79 80 79 80 79 80 81 83 79 74 70 67 66 65 64 61 61 57
Height
1451 1454 1450 1452 1454 1452 1449 1448 1447 1444 1443 1440 1433 1429 1427 1425 1424 1421 1419 1417 1416 1414 1414 1416 1417 1421 1427 1432 1437 1440 1444 1448 1452 1455 1457 1459 1460 1463 1466 1468 1469 1472 1474 1475
1452 1448 1446 1446 1450 1451 1449 1448 1444 1442 1439 1437 1430 1422 1419 1417 1415 1414 1413 1410 1410 1409 1409 1410 1411 1415 1420 1424 1430 1435 1439 1444 1448 1451 1454 1456 1458 1461 1463 1466 1467 1469 1469 1470
1445 1442 1441 1443 1446 1448 1445 1445 1443 1444 1437 1432 1429 1414 1409 1407 1407 1406 1405 1403 1403 1403 1402 1403 1405 1407 1413 1417 1423 1428 1434 1439 1444 1448 1451 1454 1457 1460 1461 1464 1466 1466 1466 1468
1445 1440 1439 1441 1442 1444 1445 1439 1440 1440 1440 1436 1425 1415 1404 1402 1400 1397 1397 1396 1396 1394 1394 1395 1396 1401 1405 1411 1418 1425 1430 1435 1441 1445 1448 1452 1454 1457 1459 1462 1465 1466 1469 1470
1439 1439 1439 1439 1436 1439 1440 1438 1439 1437 1434 1432 1427 1427 1401 1399 1395 1388 1387 1388 1388 1388 1387 1387 1388 1395 1402 1408 1413 1421 1427 1432 1437 1442 1446 1449 1453 1456 1459 1461 1464 1467 1468 1472
1437 1436 1436 1434 1434 1436 1436 1438 1434 1432 1433 1432 1418 1421 1403 1393 1384 1384 1385 1385 1384 1383 1382 1383 1386 1392 1398 1403 1409 1417 1423 1428 1434 1438 1443 1447 1451 1453 1457 1460 1463 1465 1468 1470
1436 1431 1430 1433 1435 1435 1437 1439 1436 1436 1437 1422 1407 1416 1399 1391 1388 1390 1387 1384 1380 1379 1379 1381 1383 1386 1392 1396 1403 1412 1419 1425 1430 1435 1440 1444 1448 1451 1455 1458 1460 1463 1466 1468
1435 1430 1430 1430 1430 1431 1436 1436 1434 1430 1426 1417 1410 1408 1394 1397 1393 1389 1387 1385 1379 1376 1376 1377 1380 1383 1387 1392 1398 1407 1414 1422 1427 1432 1436 1441 1445 1448 1451 1455 1457 1460 1462 1464
1434 1430 1426 1427 1427 1429 1434 1436 1432 1435 1429 1429 1404 1392 1395 1392 1390 1388 1387 1384 1378 1375 1372 1375 1378 1382 1385 1390 1398 1405 1412 1419 1426 1430 1434 1438 1441 1445 1448 1451 1454 1456 1459 1461
1427 1429 1423 1427 1427 1430 1428 1434 1434 1436 1431 1417 1396 1394 1397 1395 1391 1389 1388 1387 1384 1378 1372 1373 1377 1379 1384 1390 1398 1404 1413 1419 1424 1428 1432 1436 1439 1442 1445 1449 1451 1454 1456 1459
1428 1427 1427 1424 1424 1424 1431 1431 1436 1437 1427 1416 1408 1403 1404 1402 1397 1395 1396 1394 1388 1380 1379 1378 1378 1380 1385 1391 1397 1404 1412 1416 1422 1427 1430 1433 1436 1439 1443 1446 1448 1451 1454 1456
1431 1430 1426 1421 1418 1419 1420 1423 1430 1433 1424 1419 1415 1404 1406 1404 1402 1400 1400 1398 1392 1388 1386 1383 1383 1384 1388 1393 1399 1405 1410 1414 1419 1424 1429 1432 1434 1437 1440 1443 1446 1449 1451 1453
1433 1434 1427 1422 1422 1422 1423 1426 1430 1431 1432 1421 1414 1404 1403 1407 1406 1406 1403 1402 1398 1395 1391 1389 1384 1387 1391 1397 1400 1405 1408 1412 1418 1423 1427 1430 1433 1436 1438 1441 1443 1446 1449 1451
1433 1428 1433 1420 1418 1421 1424 1419 1420 1431 1433 1426 1416 1406 1402 1404 1407 1408 1408 1407 1401 1400 1398 1392 1390 1394 1396 1399 1401 1406 1408 1412 1418 1422 1426 1428 1432 1434 1437 1439 1441 1443 1446 1449
1435 1430 1432 1423 1418 1420 1420 1419 1418 1419 1420 1421 1405 1406 1404 1402 1404 1408 1412 1409 1404 1405 1402 1399 1398 1398 1401 1403 1405 1407 1408 1412 1416 1419 1423 1427 1429 1432 1434 1436 1438 1441 1444 1447
1432 1426 1429 1420 1417 1419 1417 1414 1414 1413 1412 1409 1405 1401 1399 1398 1400 1407 1411 1410 1410 1410 1407 1405 1403 1403 1403 1406 1408 1409 1410 1412 1415 1418 1421 1425 1426 1428 1431 1433 1435 1437 1439 1441
1432 1429 1422 1416 1419 1416 1412 1411 1412 1411 1407 1404 1402 1398 1397 1399 1399 1402 1405 1408 1414 1413 1412 1409 1409 1409 1411 1412 1414 1414 1413 1414 1416 1415 1421 1423 1425 1426 1428 1430 1431 1433 1435 1437
1430 1426 1424 1421 1419 1421 1406 1407 1407 1408 1405 1404 1398 1399 1400 1404 1405 1406 1411 1412 1414 1415 1416 1414 1415 1416 1418 1419 1418 1418 1416 1415 1417 1421 1425 1424 1425 1424 1426 1426 1428 1429 1431 1432
1429 1426 1423 1420 1420 1414 1407 1409 1413 1411 1406 1409 1406 1403 1404 1404 1404 1413 1413 1416 1418 1416 1418 1419 1420 1420 1421 1421 1421 1418 1418 1422 1426 1426 1425 1425 1423 1423 1424 1424 1425 1425 1427 1428
1424 1425 1422 1432 1427 1425 1408 1412 1412 1411 1404 1411 1409 1404 1404 1405 1403 1417 1417 1418 1418 1418 1421 1421 1422 1423 1423 1425 1423 1424 1425 1427 1421 1422 1425 1424 1422 1421 1422 1423 1422 1422 1424 1425
1422 1425 1423 1425 1425 1417 1417 1414 1411 1410 1413 1414 1411 1402 1400 1403 1407 1416 1418 1420 1420 1422 1425 1426 1427 1427 1427 1427 1428 1427 1426 1424 1426 1427 1426 1425 1423 1422 1422 1423 1420 1421 1423 1426
1414 1422 1427 1425 1425 1422 1419 1413 1413 1421 1419 1417 1414 1410 1410 1413 1414 1417 1421 1423 1420 1423 1428 1429 1430 1430 1431 1432 1431 1429 1426 1429 1429 1427 1426 1426 1426 1424 1423 1424 1423 1423 1424 1426
1419 1423 1421 1420 1415 1422 1424 1424 1424 1419 1419 1419 1418 1419 1415 1418 1418 1419 1424 1424 1425 1427 1432 1434 1434 1434 1435 1433 1432 1431 1431 1431 1432 1431 1428 1428 1428 1427 1426 1426 1426 1426 1427 1427
1422 1425 1422 1422 1422 1424 1427 1427 1425 1424 1423 1422 1422 1421 1420 1420 1423 1423 1423 1426 1427 1430 1434 1435 1436 1436 1435 1435 1434 1434 1436 1436 1435 1434 1432 1432 1431 1429 1429 1428 1429 1430 1430 1430
1430 1429 1428 1422 1425 1426 1430 1430 1430 1429 1427 1426 1427 1427 1426 1427 1427 1428 1429 1430 1430 1432 1435 1438 1438 1438 1438 1439 1439 1439 1440 1441 1439 1437 1435 1433 1432 1433 1433 1433 1434 1434 1434 1436
1436 1434 1430 1427 1431 1429 1436 1435 1434 1432 1432 1432 1432 1431 1431 1431 1431 1432 1433 1434 1436 1437 1439 1440 1441 1442 1441 1441 1442 1442 1443 1443 1442 1441 1438 1437 1437 1438 1439 1440 1439 1440 1440 1439